Home > Weather > Calw > Past weeks

Flag for Germany Past Weather in Calw, Baden-Württemberg, Germany — Yesterday and Last 2 Weeks

Now
84 °F

Sunny.


Feels Like: 87 °F
Forecast: 61 / 88 °F
Wind: 1 mph from North

Location: Stuttgart-Echterdingen

Current Time: Aug 26, 2016 at 12:39:40 PM

Latest Report: Aug 26, 2016 at 12:20 PM


Visibility: 10 mi

Pressure: 30.09 "Hg

Humidity: 55%

Dew Point: 66 °F

Location of CalwLocation

Past Weather in Calw — Graph

°F

Calw Temperature Yesterday

Maximum temperature yesterday: 88 °F (at 3:50 PM)
Minimum temperature yesterday: 57 °F (at 4:50 AM)
Average temperature yesterday: 73 °F

High & Low Weather Summary for the Past Weeks

 TemperatureHumidityPressure
High88 °F (Aug 25, 3:50 PM)100% (Aug 13, 12:20 AM)30.42 "Hg (Aug 13, 12:20 AM)
Low52 °F (Aug 13, 5:50 AM)37% (Aug 15, 4:20 PM)29.83 "Hg (Aug 18, 5:20 AM)
Average67 °F70%30.13 "Hg
* Reported Aug 11 11:20 AM — Aug 26 11:20 AM, Calw, Weather by CustomWeather, © 2016

Note: Actual official high and low records may vary slightly from our data, if they occured in-between our weather recording intervals... More about our weather records

Advertising

Calw Weather History for the Previous 24 Hours

Scroll right to see more
 ConditionsComfort  
Time TempWeatherWind HumidityBarometerVisibility
11:20 AM
Fri, Aug 26
82 °FSunny.3 mph58%30.09 "Hg10 mi
10:50 AM81 °FSunny.3 mph62%30.09 "Hg10 mi
10:20 AM79 °FPassing clouds.3 mph65%30.09 "HgN/A
9:50 AM75 °FSunny.2 mph74%30.09 "Hg10 mi
9:20 AM73 °FSunny.1 mph74%30.09 "Hg10 mi
8:50 AM70 °FSunny.2 mph78%30.09 "Hg10 mi
8:20 AM68 °FSunny.1 mph78%30.09 "Hg10 mi
7:50 AM66 °FSunny.1 mph83%30.09 "Hg10 mi
7:20 AM61 °FClear.No wind88%30.07 "Hg10 mi
6:50 AM61 °FClear.2 mph88%30.07 "Hg10 mi
6:20 AM61 °FClear.No wind88%30.07 "Hg10 mi
5:50 AM61 °FClear.No wind88%30.07 "Hg10 mi
5:20 AM61 °FClear.No wind88%30.07 "Hg10 mi
4:50 AM63 °FClear.1 mph83%30.07 "Hg10 mi
4:20 AM63 °FClear.1 mph83%30.07 "Hg10 mi
3:50 AM63 °FClear.No wind83%30.07 "Hg10 mi
3:20 AM64 °FClear.1 mph73%30.07 "Hg10 mi
2:50 AM64 °FClear.No wind73%30.04 "Hg10 mi
2:20 AM64 °FClear.3 mph73%30.04 "Hg10 mi
1:50 AM66 °FClear.3 mph73%30.04 "Hg10 mi
1:20 AM66 °FClear.1 mph73%30.07 "Hg10 mi
12:50 AM66 °FClear.No wind78%30.07 "Hg10 mi
12:20 AM68 °FClear.No wind73%30.07 "Hg10 mi
11:50 PM
Thu, Aug 25
70 °FClear.1 mph69%30.07 "Hg10 mi
11:20 PM70 °FClear.3 mph69%30.07 "Hg10 mi
10:50 PM72 °FClear.No wind65%30.07 "Hg10 mi
10:20 PM72 °FClear.2 mph69%30.07 "Hg10 mi
9:50 PM72 °FPassing clouds.3 mph69%30.07 "HgN/A
9:20 PM73 °FClear.6 mph65%30.04 "Hg10 mi
8:50 PM77 °FPassing clouds.3 mph61%30.07 "HgN/A
8:20 PM79 °FSunny.2 mph58%30.04 "Hg10 mi
7:50 PM82 °FPassing clouds.3 mph48%30.04 "HgN/A
7:20 PM84 °FPassing clouds.5 mph45%30.04 "HgN/A
6:50 PM86 °FSunny.8 mph43%30.04 "Hg10 mi
6:20 PM86 °FSunny.10 mph40%30.04 "Hg10 mi
5:50 PM88 °FPassing clouds.10 mph38%30.04 "HgN/A
5:20 PM88 °FSunny.10 mph38%30.04 "Hg10 mi
4:50 PM88 °FPassing clouds.8 mph40%30.04 "HgN/A
4:20 PM88 °FPassing clouds.8 mph40%30.07 "HgN/A
3:50 PM88 °FPassing clouds.7 mph38%30.07 "HgN/A
3:20 PM86 °FPassing clouds.6 mph43%30.07 "HgN/A
2:50 PM86 °FPassing clouds.7 mph43%30.07 "HgN/A
2:20 PM84 °FPassing clouds.6 mph45%30.07 "HgN/A
1:50 PM84 °FPassing clouds.6 mph45%30.07 "HgN/A
1:20 PM82 °FSunny.5 mph51%30.09 "Hg10 mi
12:50 PM81 °FPassing clouds.5 mph51%30.09 "HgN/A
12:20 PM79 °FSunny.3 mph54%30.09 "Hg10 mi
Weather by CustomWeather, © 2016

See weather overviewHow to use our weather pages